{"data":{"norad_id":62203,"epoch":"2026-05-24T21:07:59.685024Z","epoch_age_seconds":85613,"freshness":"FRESH","line1":"1 62203U 24229M   26144.88055191  .00019621  00000+0  71995-3 0  9998","line2":"2 62203  43.0017 200.4419 0002387 264.5431  95.5148 15.27609636 82215","mean_motion":15.27609636,"eccentricity":0.0002387,"inclination_deg":43.0017,"raan_deg":200.4419,"arg_perigee_deg":264.5431,"mean_anomaly_deg":95.5148,"bstar":0.00071995,"rev_number":8221,"period_min":94.264919915705,"perigee_km":481.3226126898,"apogee_km":484.59810056785,"semimajor_km":6861.0973566288,"source":"CELESTRAK","updated_at":"2026-05-25T13:38:19.608174Z"}}